Location: Mount Kobau Star Party
(49.1167°N, 119.7333°W)
Time: 04:22:58
(UTC-07:00)

Vanguard 1 Rocket - Pass Details

Date: 17 July 2025
Orbit: 655 x 4212 km, 34.3° (Epoch: 11 May)

Event Time Altitude Azimuth Distance (km) Brightness Sun altitude
Rises 22:38:17 0° 243° (WSW) 6,829 12.0 -12.7°
Reaches altitude 10° 22:44:09 10° 236° (SW) 5,181 11.2 -13.2°
Maximum altitude 22:55:06 31° 181° (S) 2,531 9.2 -14.2°
Enters shadow 22:59:54 18° 133° (SE) 2,673 9.2 -14.6°
